FLOCK 3R-11 (43725 NORAD) Tracking and Keplerian Element Data

This shows tracking and keplerian element data for the satellite.

Feedback or suggestion? Click here.




ElementValue
Catalog43725
NameFLOCK 3R-11
Epoch Orbit22262
Epoch Day325.19478903
Epoch Year2022
RAAN54.3104
Inclination97.3368
Eccentricity0.0011204
Argument of Perigee277.9961
Mean Anonmoly82.0044
Mean Motion15.9676926
Decay Rate0.0140224
L11 43725U 18096G 22325.19478903 .01402240 10261-2 33395-2 0 9990
L22 43725 97.3368 54.3104 0011204 277.9961 82.0044 15.96769260222628



Live tracking and technical data element details for FLOCK 3R-11 (NORAD 43725). FLOCK 3R-11 can be tracked NOW for your location showing map with azimuth and elevation plus other details from your city location.







IsCatalogInMostPopularTable: catalog: 43725, numindb: 308
Update: records affected: 1



GetName: 43725 FLOCK 3R-11

Hit Count: updated at: Thu, 22 May 2025 03:53:55 GMT